SCP
0 0 0 0 0 0 0 0 0 0 0 0 0 0 0 0 0 0 0 0 0 0 0 0 0 0 0 0 0 0 -0 -0 -0 -0 0 0 0 0 0 0 0 0 0 -0 -0 -0 0 0 0
0 0 0 0 0 0 0 0 0 0 0 0 0 0 0 0 -0 -0 0 0 0 0 0 0 0 0 0 0 0 0 0 0 0 0 0 0 0 0 0 0 0 0 0 -0 -0 -0 -0 0 0
0 0 0 0 0 0 0 0 0 0 0 0 0 0 -0 -0 -0 -0 0 0 0 0 0 0 0 0 0 0 0 0 0 0 0 0 0 0 0 0 0 0 -0 -0 -0 -0 -0 -0 -0 -0 0
0 0 0 0 0 0 0 0 0 0 0 0 0 0 0 -0 -0 -0 0 0 0 0 0 0 0 0 0 0 0 0 0 0 0 0 0 0 0 0 0 -0 -0 -0 -0 -0 -0 -0 -0 -0 -0
0 0 0 0 0 0 0 0 0 0 0 0 0 0 -0 -0 -0 0 0 0 0 0 0 0 0 0 0 0 0 0 0 0 0 0 0 0 0 0 0 0 -0 -0 -0 -0 -0 -0 -0 -0 -0
0 0 0 0 0 0 0 0 0 0 0 0 0 -0 -0 -0 -0 0 0 0 0 0 0 0 0 0 0 0 0 0 0 0 0 0 0 0 0 0 0 0 -0 -0 -0 -0 -0 -0 -0 -0 -0
0 0 0 0 0 0 0 0 0 0 0 0 0 -0 -0 -0 -0 0 0 0 0 0 0 0 0 0 0 0 0 0 0 0 0 0 0 0 0 0 0 0 0 -0 -0 -0 -0 -0 -0 -0 -0
0 0 0 0 0 0 0 0 0 0 0 0 0 0 -0 -0 -0 0 0 0 0 0 0 0 0 0 0 0 0 0 0 0 0 0 0 0 0 0 0 0 0 0 -0 -0 -0 -0 -0 0 0
0 0 0 0 0 0 0 0 0 0 0 0 0 0 0 0 0 0 0 0 0 0 0 0 0 0 0 0 0 0 0 0 0 0 0 0 0 0 0 0 0 0 0 0 0 0 0 0 0
0 0 0 0 0 0 0 0 0 0 0 0 0 0 0 0 0 0 0 0 0 0 0 0 0 0 0 0 0 0 0 0 0 0 0 0 0 0 0 0 0 0 0 0 0 0 0 0 0
0 0 0 0 0 0 0 0 0 0 0 0 0 0 1 1 1 0 0 0 0 0 0 0 0 0 0 0 0 0 0 -0 -0 -0 -0 0 0 -0 -0 -0 -0 -0 -0 0 0 0 0 0 0
0 0 0 0 0 0 0 0 0 0 0 0 0 1 1 1 1 0 0 0 0 0 0 0 0 0 0 0 0 0 -0 -0 -0 -0 -0 -0 -0 -0 -0 -0 -0 -0 -0 0 0 0 0 0 0
0 0 0 0 0 0 0 0 0 0 0 0 0 1 1 1 1 0 0 0 0 0 0 0 0 0 0 -0 -0 -0 -0 -0 -0 -0 -0 -0 -0 -0 -0 -0 0 0 0 0 0 0 0 0 0
0 0 0 0 0 0 0 0 0 0 0 0 0 1 1 1 1 1 0 0 0 0 0 0 0 0 0 -0 -0 -0 -0 -0 -0 -0 -0 -0 -0 -0 -0 0 0 0 0 0 0 0 0 0 0
0 0 0 0 0 0 0 0 0 0 0 0 0 1 1 1 1 1 0 0 0 0 0 0 0 0 0 -0 -0 -0 -0 -0 -0 -0 -0 -0 -0 -0 0 0 0 0 0 0 0 0 0 0 0
0 0 0 0 0 0 0 0 0 0 0 0 0 1 1 1 1 1 1 0 0 0 0 0 0 0 0 0 0 0 0 -0 -0 -0 -0 -0 0 0 0 0 0 0 0 0 0 0 0 0 0
0 0 0 0 0 0 0 0 0 0 0 0 1 1 1 1 1 1 1 1 1 1 0 1 1 1 1 1 0 0 0 0 -0 -0 -0 0 0 0 0 0 0 0 0 0 0 0 0 0 0
0 0 0 0 0 0 0 0 0 0 1 1 0 1 1 1 1 1 1 1 1 1 1 1 1 1 1 1 1 0 0 0 0 0 0 0 0 0 0 0 0 0 0 0 0 0 0 0 0
0 0 0 0 0 0 0 0 0 1 1 0 0 0 0 0 0 0 1 1 1 1 1 1 2 2 2 2 1 1 1 1 0 0 0 0 0 0 0 0 0 0 0 0 0 0 0 0 0
0 0 0 0 0 0 0 0 0 0 0 0 0 0 0 0 0 0 0 0 1 1 1 2 2 2 2 2 2 1 1 1 0 0 0 0 0 0 0 0 0 0 0 0 0 0 0 0 0
0 0 0 0 0 0 0 0 0 0 0 0 0 0 -0 -0 -0 -0 0 0 0 1 1 1 1 1 2 2 1 1 1 1 1 0 0 0 0 0 0 0 0 0 0 0 0 0 0 0 0
0 0 0 0 0 0 0 0 0 0 0 0 0 0 0 -0 -0 0 0 0 0 0 0 0 1 1 1 1 1 1 1 1 1 0 0 0 0 0 0 0 0 0 0 0 0 0 0 0 0
0 0 0 0 0 0 0 0 0 0 0 0 0 0 0 0 0 0 0 0 0 0 0 0 0 0 0 0 0 0 0 1 0 0 0 0 0 0 0 0 0 0 0 0 0 0 0 0 0
0 0 0 0 0 0 0 0 0 0 0 0 0 0 0 0 0 0 0 0 0 0 0 0 0 0 0 0 0 0 0 0 0 0 0 0 0 0 0 0 0 0 0 0 0 0 0 0 0
0 0 0 0 0 0 0 0 0 0 0 0 0 0 0 0 0 0 0 0 0 0 0 0 0 0 0 0 0 0 0 0 0 0 0 0 0 0 0 0 0 0 0 0 0 0 0 0 0
0 0 0 0 0 0 0 0 0 0 0 0 0 0 0 0 0 0 0 0 0 0 0 0 0 0 0 0 0 0 0 0 0 0 0 0 0 0 0 0 0 0 0 0 0 0 0 0 0
0 0 0 0 0 0 0 0 0 0 0 0 0 0 0 0 0 0 0 0 0 0 0 0 0 0 0 0 0 0 0 0 0 0 0 0 0 0 0 0 0 0 0 0 0 0 0 0 0
0 0 0 0 0 0 0 0 0 0 0 0 0 0 0 0 0 0 0 0 0 0 0 0 0 0 0 0 0 0 0 0 0 0 0 0 0 0 0 0 0 0 0 0 0 0 0 0 0
0 0 0 0 0 0 0 0 0 0 0 0 0 0 0 0 0 0 0 0 0 0 0 0 0 0 0 0 0 0 0 0 0 0 0 0 0 0 0 0 0 0 0 0 0 0 0 0 0
0 0 0 0 0 0 0 0 0 0 0 0 0 0 0 0 0 0 0 0 0 0 0 0 0 0 0 0 0 0 0 0 0 0 0 0 0 0 0 0 0 0 0 0 0 0 0 0 0
Wind_Speed
3 2 4 3 3 3 4 2 1 5 3 3 7 7 8 4 1 2 3 9 12 10 7 11 14 14 14 13 13 13 13 13 13 12 13 13 13 12 12 11 10 10 10 9 8 9 10 11 11
1 2 2 3 3 2 3 3 3 2 1 3 6 7 7 4 3 7 5 10 13 11 7 8 15 15 15 14 13 14 14 13 13 12 12 12 12 11 11 10 8 9 9 8 8 9 8 9 11
2 1 4 4 3 2 3 4 4 1 2 2 5 6 6 6 8 7 7 13 12 9 7 9 16 15 15 14 13 13 13 13 12 11 11 11 10 10 9 8 7 7 8 7 7 8 8 8 9
2 4 5 5 1 3 3 5 6 4 3 5 5 7 5 5 7 8 14 13 12 9 7 9 15 15 15 14 13 13 13 12 12 11 10 9 9 8 7 7 6 6 6 6 7 7 7 8 8
4 4 5 2 2 2 1 4 5 4 3 2 4 6 3 2 9 15 14 13 12 8 7 8 15 15 15 14 12 12 13 13 12 11 10 9 8 7 7 7 6 5 4 5 7 7 7 6 7
5 5 4 2 2 1 1 3 4 5 4 3 5 6 3 7 14 15 13 11 10 10 8 8 15 16 15 14 13 12 13 13 13 12 11 9 8 8 7 6 6 5 5 5 5 7 7 7 6
5 4 4 3 2 2 3 2 3 5 4 4 6 7 6 10 12 13 11 10 8 8 7 7 8 12 16 16 15 14 13 12 12 12 11 10 8 7 6 5 5 6 6 6 6 6 6 6 6
4 5 2 1 1 3 3 3 1 3 3 2 4 9 9 12 13 11 10 8 7 6 6 6 6 6 6 8 14 14 13 12 11 11 10 9 8 7 6 5 5 6 6 6 7 7 7 7 6
4 5 2 3 3 4 3 3 1 2 4 1 1 5 9 17 17 15 12 9 7 6 4 5 6 6 5 5 8 10 12 11 10 8 10 8 3 3 4 6 7 7 7 7 8 8 8 8 7
5 3 5 3 3 4 4 3 3 3 2 1 1 4 16 19 19 18 16 16 13 11 8 5 6 7 6 6 5 3 3 4 4 3 4 3 3 3 4 5 8 9 9 9 9 9 8 6 2
4 5 4 3 3 4 4 2 3 5 4 7 6 11 21 21 18 17 16 15 15 13 11 8 7 6 5 3 3 2 2 2 3 4 3 2 2 2 2 2 3 4 5 3 4 4 3 3 2
4 5 4 3 3 4 5 5 4 7 6 5 8 13 19 20 19 17 16 15 12 12 12 9 7 6 5 3 3 3 2 2 3 3 3 2 2 2 3 2 3 2 1 1 2 2 3 3 3
4 4 4 5 3 5 6 7 5 8 4 7 11 14 17 15 13 11 11 12 12 13 11 9 7 6 5 4 3 3 3 3 3 3 4 4 3 3 3 3 2 2 2 2 2 2 2 3 4
3 4 4 5 2 4 6 3 1 9 4 8 11 14 13 13 13 11 10 10 10 11 10 8 8 7 6 5 4 4 4 3 3 4 5 5 4 3 4 3 3 4 3 3 3 3 2 2 2
2 2 2 2 1 3 6 1 8 6 4 7 9 10 10 10 10 12 12 10 10 10 9 9 9 7 7 7 6 5 5 4 5 5 5 6 5 4 4 4 4 3 2 2 2 2 1 1 1
3 3 1 4 1 4 9 7 12 4 6 8 8 9 8 7 9 10 10 9 9 9 9 10 10 9 9 8 7 5 5 5 5 5 4 5 6 5 4 3 3 2 1 2 2 2 1 1 2
5 3 1 4 2 2 5 7 9 5 8 10 9 8 7 6 5 9 11 11 10 11 11 11 10 11 11 10 7 5 5 6 5 4 4 5 5 5 4 3 2 2 1 2 2 2 1 1 2
0 1 0 2 4 3 2 7 4 4 7 9 7 6 6 6 4 4 6 7 7 8 10 10 10 10 10 7 5 4 4 4 4 4 5 6 5 5 4 3 3 3 2 2 2 2 2 1 1
3 2 0 1 3 4 4 4 3 1 1 3 3 3 3 1 1 1 2 1 2 5 7 9 10 10 8 5 5 5 4 3 3 4 6 6 6 6 5 4 4 4 4 4 3 2 2 1 1
3 3 1 2 4 3 4 7 6 6 4 4 5 7 6 4 4 5 4 5 4 4 5 6 7 8 10 8 5 3 3 3 3 3 5 6 6 6 5 6 5 5 4 4 4 3 2 2 2
3 3 2 1 3 6 4 6 8 6 6 9 10 7 5 2 1 2 2 1 2 4 5 5 4 4 5 4 3 3 3 2 2 3 3 4 5 6 6 7 5 5 5 5 5 5 5 3 2
3 3 4 3 3 3 3 1 3 6 8 9 12 12 10 4 1 1 0 2 4 6 6 6 5 5 5 3 3 5 5 4 4 2 3 3 4 5 5 5 5 6 5 5 5 5 4 4 3
3 3 3 3 3 1 1 3 3 5 6 8 10 10 9 6 4 5 4 6 8 8 8 7 7 7 6 6 3 1 0 1 1 1 3 2 2 3 4 4 4 4 4 4 3 4 5 4 4
5 6 6 6 4 2 3 3 4 2 3 6 7 9 9 8 6 5 5 5 6 7 7 7 6 4 4 4 4 2 3 2 3 4 3 1 2 3 3 2 1 1 2 2 3 4 5 4 4
5 6 4 4 3 6 2 2 4 4 3 4 5 7 8 8 7 7 7 7 5 3 3 4 5 4 2 1 2 3 5 3 2 4 3 2 2 2 4 3 2 1 1 2 2 3 4 4 4
3 6 7 5 5 4 2 4 4 1 1 2 1 4 6 6 6 6 5 6 6 6 5 3 2 1 1 1 2 3 4 3 1 1 1 2 2 2 2 3 2 1 1 2 2 2 3 3 4
6 3 2 4 2 2 4 2 3 2 3 4 4 4 6 6 7 7 7 6 5 5 4 2 1 1 1 2 3 4 4 3 2 2 3 3 3 3 3 2 2 3 3 3 1 1 2 2 4
4 8 4 3 3 5 4 5 5 6 3 3 4 4 5 6 7 8 8 8 7 5 3 2 2 2 3 3 3 3 3 3 2 3 4 4 3 3 2 3 3 3 3 3 2 1 1 1 2
4 3 4 4 3 3 4 5 2 5 5 6 5 4 5 6 7 7 7 7 6 5 5 5 4 4 4 3 3 3 3 3 4 4 4 3 3 3 3 2 2 3 4 3 2 2 2 2 2
4 6 7 6 6 4 2 3 4 7 7 6 6 4 3 4 4 5 6 7 7 7 6 6 4 4 3 3 3 3 3 3 3 3 3 2 3 2 2 2 3 3 3 3 3 3 3 3 3
Wind_Direction
271 208 148 117 74 53 68 68 5 350 22 45 89 86 92 89 215 174 120 135 136 141 149 155 151 148 144 140 135 132 131 127 124 126 129 129 132 134 132 129 128 125 121 121 125 134 135 135 132
291 181 121 82 86 61 74 121 100 349 265 148 94 88 87 91 93 112 134 145 139 141 146 154 154 152 151 148 144 141 140 137 133 131 131 134 135 133 132 130 128 125 125 127 129 136 137 138 138
280 56 89 74 87 145 149 164 164 173 32 105 99 91 103 128 140 146 156 145 138 141 150 164 156 155 154 154 153 149 146 145 144 143 141 139 137 134 134 137 136 129 128 131 133 135 140 141 145
77 50 55 74 159 223 196 174 178 165 56 39 102 95 97 138 155 150 146 144 138 141 152 168 160 159 157 156 156 155 154 155 155 155 154 150 145 140 143 146 147 144 141 143 146 148 149 149 152
63 76 71 77 232 242 212 171 173 143 109 84 111 102 86 83 131 139 147 147 146 147 155 165 163 164 163 163 165 166 162 162 164 165 164 165 164 164 168 171 173 173 171 169 165 164 167 166 167
59 68 96 178 242 240 222 177 161 127 139 152 116 109 98 133 140 148 152 152 153 153 153 160 163 164 167 166 166 169 169 168 170 173 174 177 182 187 192 195 197 200 203 203 189 179 180 186 192
108 109 156 182 235 241 209 173 165 142 156 168 130 113 123 152 154 151 152 152 151 153 153 157 160 163 168 170 168 169 171 170 169 171 173 174 176 185 195 206 215 217 220 223 217 207 204 204 204
127 109 135 196 219 258 179 156 141 126 138 120 125 141 160 172 157 150 149 150 150 151 158 159 158 160 167 172 173 173 174 174 171 168 168 171 177 183 194 199 223 228 230 234 237 235 231 227 224
88 82 170 193 185 246 193 169 129 105 100 92 163 165 163 155 153 154 156 158 160 163 167 160 159 163 165 172 184 176 178 179 178 174 174 173 174 188 203 207 219 230 233 236 240 244 245 244 242
88 134 217 220 193 209 197 183 157 100 74 204 190 139 139 154 161 165 168 169 171 178 183 180 178 173 169 180 180 172 174 175 180 180 182 167 178 209 221 235 237 240 238 238 240 240 245 249 237
131 189 236 235 208 181 186 188 149 136 211 218 191 161 153 163 168 172 175 177 179 179 182 187 188 177 173 178 164 160 156 169 193 207 203 185 197 225 240 251 264 268 262 246 265 260 238 228 217
159 228 241 254 156 167 187 183 191 206 207 165 157 159 162 172 177 179 180 181 181 182 189 186 184 175 177 182 175 166 168 189 205 215 210 198 219 231 232 235 235 237 244 244 251 255 262 257 250
195 237 245 254 249 205 187 191 203 245 186 142 145 160 175 178 179 182 186 182 181 188 192 187 181 180 178 182 181 178 192 208 216 221 217 210 217 232 233 237 223 218 207 218 237 241 263 268 266
229 236 276 288 248 186 171 191 239 263 160 147 159 171 182 183 178 178 184 186 186 190 191 182 184 184 181 189 189 190 199 210 209 220 227 225 224 233 232 231 219 216 215 214 216 220 224 247 255
282 289 318 314 112 143 113 95 240 252 153 172 177 172 181 190 184 188 188 187 189 191 186 181 187 183 188 198 199 192 198 210 218 222 220 219 219 226 226 223 219 220 215 206 207 205 176 228 242
57 83 54 303 42 142 137 212 248 230 178 202 192 182 187 191 194 192 188 190 189 188 185 188 192 185 194 203 205 199 195 207 226 227 218 221 224 214 210 222 220 219 197 184 194 174 166 280 283
35 92 131 312 7 144 181 219 244 196 193 211 201 193 192 187 182 187 190 194 191 191 190 191 191 189 193 199 199 200 198 208 222 223 215 217 219 209 200 222 220 188 183 196 191 164 162 253 282
164 81 10 316 349 35 221 246 269 198 203 217 209 201 203 195 177 167 186 192 193 196 196 195 192 194 189 181 178 185 199 208 207 211 216 209 205 203 190 202 203 174 182 206 203 190 180 214 255
176 153 157 316 338 52 29 325 313 130 244 274 278 274 269 311 26 17 353 318 203 204 202 198 193 193 178 171 181 180 190 194 199 212 223 215 203 193 184 188 195 185 196 209 201 182 205 234 155
143 118 76 322 334 60 63 22 18 47 37 17 354 340 351 4 350 345 347 348 328 281 248 228 212 202 191 192 185 168 158 172 196 211 224 219 206 195 193 195 197 195 202 214 199 180 191 224 167
77 130 141 315 1 26 64 22 8 7 18 16 8 355 357 16 315 284 283 304 5 359 347 333 308 272 242 217 166 140 135 138 182 217 219 208 204 200 196 203 197 196 199 212 203 187 194 214 191
160 175 148 113 75 341 58 111 344 347 358 3 358 354 356 7 104 124 127 125 106 84 63 41 29 12 347 312 225 189 182 191 209 217 223 203 199 201 197 197 199 207 207 213 207 195 196 193 205
171 91 90 87 117 36 348 156 264 360 351 336 339 347 358 13 49 69 77 99 101 98 93 82 67 47 16 356 349 353 167 238 338 290 252 212 163 169 185 201 209 219 217 218 204 195 203 199 192
119 76 55 44 69 224 232 183 227 275 290 303 318 340 358 9 24 47 64 91 109 116 113 110 101 79 46 9 349 36 62 1 307 278 247 197 116 93 78 92 173 215 232 229 211 206 209 207 197
89 90 37 359 2 246 276 202 219 218 261 272 301 337 356 3 7 11 10 2 360 23 77 108 114 105 80 25 3 34 62 40 316 280 245 170 118 95 79 83 89 99 260 263 241 216 220 209 204
123 132 161 199 221 265 296 226 224 202 160 113 57 349 356 4 8 11 4 351 342 343 350 13 52 86 129 90 20 49 78 89 94 262 152 103 86 81 74 76 73 41 329 298 263 239 233 217 218
110 91 146 135 174 259 262 270 302 174 118 110 91 40 22 13 13 16 17 12 358 341 330 341 23 49 60 77 59 54 71 92 103 88 82 81 75 68 61 51 32 10 354 346 323 230 239 224 224
122 142 128 142 196 238 261 217 215 196 162 96 85 54 20 13 16 13 15 15 10 5 359 20 70 69 62 68 67 68 66 79 89 83 81 82 75 67 67 39 15 355 337 333 341 315 298 266 245
114 133 140 143 179 208 262 262 207 143 104 97 88 63 26 12 7 4 2 3 8 26 40 47 63 68 61 55 54 63 53 51 56 58 54 57 58 66 68 45 14 345 324 317 306 300 320 330 324
177 178 155 168 198 187 239 275 36 95 90 94 95 70 29 10 356 354 359 5 11 22 42 54 55 56 42 39 52 55 43 50 65 70 66 73 79 71 68 49 27 358 342 344 349 340 338 341 346